Christine, Texas
Current Conditions -  °F | °C
As of 2:55 AM on Monday 22 Dec 2014 (Local Time) from KPEZ Reporting Station
Haze Haze  
Wind Chill: 57°   Ceiling: 200
Heat Index: 57°   Visibility: 2mi
Dew Point: 56°   Wind: 0mph
Humidity: 98%   Direction: NA
Pressure: 29.81"   Gusts: NA
Location:  28.79°N, 98.5°W
Report Text: KPEZ 220855Z AUTO 00000KT 2SM BR OVC002 14/14 A2981 RMK AO2 T01380135
Loading
Personal Weather Stations






























Interactive Weather Map New forecast layout! Learn more

10-Day Weather Forecast

Advertisements
Track Severe Weather on mobile